Home > Weather > Halle > Past weeks

Flag for Germany Past Weather in Halle, Saxony-Anhalt, Germany — Yesterday and Last 2 Weeks

Now
57 °F

Clear.


Feels Like: 56 °F
Forecast: 57 / 78 °F
Wind: 6 mph from South

Location: Leipzig-Schkeuditz

Current Time: Jun 30, 2016 at 5:17:36 AM

Latest Report: Jun 30, 2016 at 4:20 AM


Visibility: 10 mi

Pressure: 29.89 "Hg

Humidity: 88%

Dew Point: 54 °F

Location of HalleLocation

Past Weather in Halle — Graph

°F

Halle Temperature Yesterday

Maximum temperature yesterday: 79 °F (at 2:20 PM)
Minimum temperature yesterday: 59 °F (at 12:20 AM)
Average temperature yesterday: 69 °F

High & Low Weather Summary for the Past Weeks

 TemperatureHumidityPressure
High93 °F (Jun 24, 2:50 PM)100% (Jun 17, 3:20 AM)30.24 "Hg (Jun 17, 3:20 AM)
Low48 °F (Jun 20, 5:20 AM)30% (Jun 24, 2:50 PM)29.50 "Hg (Jun 15, 4:20 AM)
Average67 °F71%29.97 "Hg
* Reported Jun 15 4:20 AM — Jun 30 4:20 AM, Halle, Weather by CustomWeather, © 2016

Note: Actual official high and low records may vary slightly from our data, if they occured in-between our weather recording intervals... More about our weather records

Advertising

Halle Weather History for the Previous 24 Hours

Scroll right to see more
 ConditionsComfort  
Time TempWeatherWind HumidityBarometerVisibility
4:20 AM
Thu, Jun 30
57 °FClear.6 mph88%29.89 "Hg10 mi
3:50 AM59 °FClear.6 mph82%29.89 "Hg10 mi
3:20 AM59 °FClear.6 mph77%29.89 "Hg10 mi
2:50 AM59 °FClear.6 mph77%29.92 "Hg10 mi
2:20 AM57 °FClear.6 mph88%29.92 "Hg10 mi
1:50 AM59 °FClear.7 mph77%29.92 "Hg10 mi
1:20 AM61 °FClear.5 mph77%29.92 "Hg10 mi
12:50 AM59 °FClear.3 mph82%29.92 "Hg10 mi
12:20 AM61 °FClear.5 mph77%29.92 "Hg10 mi
11:50 PM
Wed, Jun 29
61 °FClear.5 mph77%29.92 "Hg10 mi
11:20 PM61 °FPassing clouds.5 mph72%29.92 "HgN/A
10:50 PM64 °FClear.5 mph68%29.92 "Hg10 mi
10:20 PM64 °FSunny.5 mph68%29.92 "Hg10 mi
9:50 PM66 °FSunny.7 mph64%29.92 "Hg10 mi
9:20 PM68 °FSunny.7 mph60%29.89 "Hg10 mi
8:50 PM70 °FSunny.5 mph57%29.89 "Hg10 mi
8:20 PM72 °FSunny.7 mph47%29.89 "Hg10 mi
7:50 PM73 °FSunny.9 mph44%29.89 "Hg10 mi
7:20 PM75 °FSunny.9 mph44%29.89 "Hg10 mi
6:50 PM75 °FSunny.12 mph41%29.89 "Hg10 mi
6:20 PM75 °FSunny.13 mph41%29.89 "Hg10 mi
5:50 PM75 °FSunny.16 mph44%29.86 "Hg10 mi
5:20 PM77 °FSunny.17 mph42%29.89 "Hg10 mi
4:50 PM77 °FSunny.15 mph42%29.89 "Hg10 mi
4:20 PM79 °FSunny.17 mph39%29.89 "Hg10 mi
3:50 PM79 °FSunny.15 mph42%29.89 "Hg10 mi
3:20 PM77 °FPassing clouds.14 mph44%29.89 "HgN/A
2:50 PM79 °FSunny.22 mph39%29.86 "Hg10 mi
2:20 PM79 °FPassing clouds.25 mph39%29.86 "HgN/A
1:50 PM77 °FPassing clouds.21 mph44%29.86 "HgN/A
1:20 PM77 °FPartly sunny.20 mph51%29.86 "HgN/A
12:50 PM75 °FPartly sunny.15 mph50%29.89 "HgN/A
12:20 PM75 °FBroken clouds.17 mph50%29.89 "HgN/A
11:50 AM73 °FScattered clouds.16 mph53%29.89 "HgN/A
11:20 AM73 °FScattered clouds.16 mph57%29.89 "HgN/A
10:20 AM72 °FBroken clouds.18 mph61%29.89 "HgN/A
9:50 AM72 °FScattered clouds.20 mph65%29.86 "HgN/A
9:20 AM70 °FScattered clouds.17 mph69%29.89 "HgN/A
8:50 AM68 °FBroken clouds.16 mph73%29.89 "HgN/A
8:20 AM66 °FBroken clouds.14 mph83%29.86 "HgN/A
7:50 AM64 °FSunny.13 mph88%29.86 "Hg10 mi
7:20 AM63 °FBroken clouds.10 mph94%29.86 "HgN/A
6:50 AM63 °FBroken clouds.9 mph94%29.86 "HgN/A
6:20 AM61 °FPartly sunny.8 mph94%29.89 "HgN/A
5:50 AM61 °FPassing clouds.6 mph94%29.89 "HgN/A
5:20 AM61 °FLight rain. Mostly cloudy.8 mph94%29.89 "HgN/A
Weather by CustomWeather, © 2016

See weather overviewHow to use our weather pages